Lid_Strength_Index
5 9 7 8 11 13 15 13 12 12 10 9 9 8 11 13 12 12 11 11 11 10 7 5 -0 -1 -1 -2 -2 -2 -1 -1 -1 -1 -1 -1 -1 -1 -1 -1 -1 -1 -1 -1 -1 -1 -1 -1 -1
8 7 7 11 14 16 14 12 13 12 10 8 12 12 14 15 14 14 13 11 11 9 7 3 1 -1 -1 -1 -1 -1 -2 -2 -1 -1 -1 -1 -1 -1 -1 -2 -2 -2 -1 -1 -1 -1 -1 -1 -1
9 7 9 13 15 15 14 12 12 11 11 9 14 15 16 16 15 14 12 11 10 8 7 3 1 1 0 -0 -1 -1 -1 -1 -1 -1 -1 -2 -1 -1 -1 -1 -2 -2 -2 -1 -1 -1 -1 -1 -2
7 7 10 13 14 14 13 13 13 12 11 12 15 16 15 14 13 12 11 10 8 7 6 3 1 1 1 1 1 0 -0 -1 -1 -1 -1 -1 -2 -2 -2 -1 -2 -2 -2 -2 -2 -2 -2 -2 -3
8 9 13 14 14 14 14 14 13 12 13 14 12 15 15 12 11 10 10 9 8 7 6 5 2 1 1 1 2 2 2 2 1 0 -1 -1 -1 -1 -2 -2 -1 -2 -2 -2 -2 -2 -2 -2 -2
10 10 14 15 14 14 14 15 13 13 13 14 12 14 13 11 11 10 10 9 9 8 7 6 4 3 3 2 2 3 3 3 3 2 2 1 -0 -1 -1 -1 -2 -1 -1 -2 -2 -2 -2 -2 -2
10 12 13 14 15 14 14 16 14 12 14 14 12 13 13 13 11 10 10 10 10 9 8 8 7 5 4 4 3 3 2 2 4 3 4 1 1 1 2 1 -1 -1 -2 -1 -2 -2 -2 -2 -2
10 11 14 14 15 13 15 14 14 13 13 13 13 14 14 12 11 11 10 10 10 10 9 9 8 7 6 6 5 4 4 4 4 3 3 4 4 4 5 3 2 -1 -1 -1 -1 -1 -1 -2 -2
8 12 14 14 14 13 15 15 14 14 14 14 14 14 12 11 11 11 11 11 10 9 9 9 9 8 7 6 6 6 5 5 5 5 5 5 5 4 4 4 4 3 2 0 -1 -1 -1 -1 -1
10 12 13 14 14 15 16 15 15 15 15 16 15 14 13 12 12 12 12 12 11 10 10 10 9 9 8 7 7 6 6 6 5 5 5 5 5 4 4 3 3 4 3 1 -1 -1 -0 0 -0
14 12 15 15 15 15 16 16 15 16 17 16 16 15 14 12 12 12 12 11 11 10 10 10 10 9 9 8 7 7 6 6 6 5 5 5 5 5 5 4 3 3 3 2 2 -0 -1 -0 -0
14 15 15 15 15 16 16 16 16 17 15 14 15 14 14 13 13 13 12 12 11 11 10 10 10 10 9 9 8 7 7 6 6 6 5 5 5 5 5 5 4 4 3 3 3 2 3 1 -0
15 17 16 16 16 17 16 17 17 17 15 15 15 14 14 13 13 13 12 12 11 12 11 10 10 10 10 9 8 8 7 7 6 6 6 6 5 6 5 5 5 4 4 4 3 4 3 4 2
17 17 17 17 17 16 17 18 17 16 16 15 15 15 15 14 13 13 12 12 12 11 11 10 10 10 10 9 9 9 8 7 7 6 6 6 5 5 5 5 5 5 4 4 3 4 4 3 3
16 18 17 18 17 17 17 18 18 16 16 16 16 15 15 14 13 13 13 12 12 11 11 11 10 10 10 10 9 9 8 8 7 7 6 6 6 6 6 5 5 5 4 4 4 4 4 3 2
18 19 20 18 17 17 17 17 17 16 17 17 16 16 16 15 14 14 13 13 12 12 11 11 11 10 10 10 9 9 8 8 7 7 6 6 6 6 6 6 5 5 5 4 5 5 4 4 4
20 21 21 19 18 18 18 18 16 17 17 17 17 16 16 15 15 14 13 13 12 12 12 11 11 11 10 10 9 9 8 8 7 7 7 7 7 6 6 6 6 5 5 5 5 5 4 5 4
21 21 20 21 19 19 19 19 16 16 17 16 16 16 16 16 15 14 13 13 13 12 12 12 11 11 10 10 10 9 9 8 8 8 7 7 7 7 6 6 6 6 6 6 5 5 4 4 4
20 21 21 20 19 20 20 20 17 16 18 17 16 17 17 16 14 14 13 13 13 12 12 12 12 11 11 10 10 10 10 9 8 8 8 7 7 7 7 7 7 6 6 6 6 5 6 5 4
20 20 21 20 19 20 20 20 16 16 17 17 16 17 16 16 15 14 14 14 13 13 13 12 12 11 11 10 10 10 9 9 9 8 8 7 7 7 7 7 7 7 7 7 6 6 7 6 5
21 21 21 21 20 21 22 20 17 18 18 17 17 17 17 16 15 15 14 14 13 13 13 12 12 11 11 11 10 10 9 9 9 9 9 8 8 7 8 8 7 7 7 7 7 7 7 7 6
20 20 20 21 21 21 21 22 18 19 18 17 16 17 17 17 16 15 15 14 14 13 13 12 12 12 11 11 11 11 11 12 10 10 9 9 8 8 8 8 8 7 7 7 7 7 6 6 8
20 20 20 21 22 23 23 23 19 19 17 16 16 16 16 16 16 16 15 14 14 13 13 12 12 12 11 11 11 11 11 11 10 10 10 9 9 9 9 8 8 8 8 8 7 7 7 7 7
19 20 20 22 22 25 24 23 20 18 17 17 16 16 16 16 16 15 15 14 14 13 13 12 12 12 11 11 11 11 11 11 11 11 11 10 10 9 9 8 8 8 8 8 8 7 8 7 7
20 21 23 24 25 23 24 24 19 17 16 17 16 16 16 16 16 16 15 15 14 13 13 13 13 12 12 11 11 11 11 11 11 11 11 11 11 10 10 9 8 8 8 8 7 8 8 8 8
21 22 23 26 26 24 23 24 18 16 17 16 16 16 16 16 16 16 15 15 14 13 13 13 13 13 12 12 11 11 11 11 11 11 11 11 11 11 9 9 8 8 8 8 8 8 8 8 8
21 23 22 25 28 26 23 20 17 16 16 16 16 16 16 16 16 16 15 15 14 14 14 14 14 13 12 12 12 12 12 12 12 12 11 11 10 10 10 10 10 10 10 10 10 10 9 9 9
20 19 23 24 27 28 23 22 19 16 16 16 16 16 16 16 16 16 15 15 15 14 14 14 14 13 12 12 12 12 12 12 12 12 12 12 11 11 11 11 11 11 11 11 11 11 11 11 10
22 23 23 23 23 25 27 22 18 17 16 16 15 16 16 16 16 15 15 15 15 15 15 15 14 13 13 13 13 13 13 13 12 12 12 12 11 11 11 11 11 12 12 12 12 12 12 12 12
21 21 21 23 25 25 24 23 17 16 16 17 16 16 16 15 15 15 16 15 15 15 15 15 14 13 13 13 14 14 13 13 13 13 12 11 11 11 11 11 12 13 13 13 13 13 13 13 13